Regional Weather Roundup
Issued by NWS Goodland, KS

Home | Current Version | Previous Version | Graphics & Text | Print | Product List | Glossary On
Versions: 1 2 3 4 5 6 7 8 9 10 11 12 13 14 15 16 17 18 19 20 21 22 23 24 25 26 27 28 29 30 31 32 33 34 35 36 37 38 39 40 41 42 43 44 45 46 47 48 49 50
000
ASUS43 KGLD 012208
RWRGLD

GOODLAND FORECAST AREA HOURLY WEATHER ROUNDUP
NATIONAL WEATHER SERVICE GOODLAND KS
400 PM MDT MON JUN 01 2015

...OFFICIAL OBSERVATIONS...

CITY           SKY/WX    TMP DP  RH WIND       PRES   REMARKS
GOODLAND KS    SUNNY     83  59  44 S16G24    29.98F
HILL CITY KS   PTSUNNY   79  62  56 SE14G23   29.99F
IMPERIAL NEB   SUNNY     81  61  50 SE20G25   29.96F
MCCOOK NEB     MOSUNNY   82  61  48 S18G26    29.97F
AKRON CO       SUNNY     85  50  29 SE16G24   29.99F
BURLINGTON CO  SUNNY     84  59  42 S18G26    30.00F
LIMON CO       PTSUNNY   74  55  51 W12G21    30.09R
$$

...UNOFFICIAL OBSERVATIONS...

CITY           SKY/WX    TMP DP  RH WIND       PRES   REMARKS
COLBY KS       SUNNY     84  63  48 SE15G23   29.99F
GOVE KS          N/A     82  32  16 MISG        N/A
NORTON KS      MOSUNNY   79  57  47 SE10G21   29.99F
SHARON SPRINGS   N/A     84  67  57 MISG        N/A
KIT CARSON CO    N/A     83  54  36 MISG        N/A
$$


USA.gov is the U.S. government's official web portal to all federal, state and local government web resources and services.